7 * 24
多渠道服务支持
COSMOS 1491是苏联(CIS)于1983年8月10日发射的首代GLONASS导航试验卫星,隶属于格洛纳斯全球卫星导航系统的早期组网任务。它运行在约19100公里的中地球轨道,轨道倾角64.8°,搭载L波段导航信号发射器,依托太阳能供电,旨在验证卫星导航系统组网与定位服务能力,是苏联GLONASS系统发展历程中的早期重要节点。
俄罗斯(独联体)
(CIS)
| 数据来源 | 国际轨道数据 |
| 星历时间: | 2026-09-08T18:33:14+0800 3天前 查看轨道信息 |
| 半长轴: | 25323.567km |
| 偏心率: | 0.0019137 |
| 轨道倾角: | 65.082° |
| 近地点辐角 | 302.810° |
| 升交点赤经 | 55.151° |
| 平近点角 | 43.908° |
| 近地点: | 18896.968km |
| 远地点: | 18993.892km |
| 周期: | 668.416分钟 |
| 每日圈数: | 2.154346 |